Regional Weather Roundup
Issued by NWS Wakefield, VA

Home | Current Version | Previous Version | Graphics & Text | Print | Product List | Glossary On
Versions: 1 2 3 4 5 6 7 8 9 10 11 12 13 14 15 16 17 18 19 20 21 22 23 24 25 26 27
000
ASUS41 KAKQ 151616
RWRAKQ

REGIONAL WEATHER ROUNDUP
NATIONAL WEATHER SERVICE WAKEFIELD VA
1200 PM EDT TUE AUG 15 2017

Note: "fair" indicates few or no clouds below 12,000 feet with no
significant weather and/or obstructions to visibility. * = Denotes
station may not report precipitation (e.g., rain,snow,etc.),
thunder or fog.

VAZ042-051-052>054-056-151700-
NORTHERN VIRGINIA

CITY           SKY/WX    TMP DP  RH WIND       PRES   REMARKS
WASH NATIONAL  LGT RAIN  77  76  96 S5        29.90F
DULLES         LGT RAIN  71  71 100 N3        29.91F FOG
FORT BELVOIR   RAIN      76  74  94 CALM      29.90S FOG
QUANTICO       LGT RAIN  77  75  93 W5        29.92S
FREDERICKSBRG* HVY RAIN  75  75 100 CALM      29.91R VSB 1/2
STAFFORD*      RAIN      73  73 100 CALM      29.95R
WARRENTON      RAIN      74  71  89 CALM      29.91S
CULPEPER*      LGT RAIN  74  73  97 CALM      29.92F
MANASSAS*      RAIN      73  71  93 N3        29.92F
LEESBURG*      CLOUDY    72  72 100 CALM      29.92F FOG
WINCHESTER     CLOUDY    70  68  94 CALM      29.92F
FRONT ROYAL*   CLOUDY    70  70 100 CALM      29.92F
LURAY*           N/A    N/A N/A N/A MISG        N/A
$$

VAZ048-049-060>072-079>083-151700-
CENTRAL AND SOUTH CENTRAL VIRGINIA

CITY           SKY/WX    TMP DP  RH WIND       PRES   REMARKS
RICHMOND       CLOUDY    80  76  87 S5        29.89F
CHESTERFIELD*  CLOUDY    80  76  87 W5        29.91S
PETERSBURG*    CLOUDY    81  74  79 CALM      29.91S
HANOVER        HVY RAIN  77  74  90 CALM      29.91S VSB 1
TAPPAHANNOCK*  RAIN      82  75  79 CALM      29.91S
QUINTON*       CLOUDY   N/A N/A N/A CALM      29.89S
CHARLOTTSVILLE CLOUDY    75  72  90 S3        29.92F
GORDONSVILLE*  CLOUDY    75  74  96 CALM      29.92S
ORANGE*        DRIZZLE   73  72  94 CALM      29.92R
LOUISA*        CLOUDY    75  72  88 N3        29.92S
BUMPASS*       CLOUDY    73  73 100 CALM      29.92R VSB 3/4
FARMVILLE*     CLOUDY    81  74  80 S3        29.91S
CREWE*         CLOUDY    79  75  87 SE3       29.91F
FORT PICKETT*  CLOUDY   N/A N/A N/A NW5       29.92S
CHASE CITY*    CLOUDY    82  78  88 CALM      29.91F
CLARKSVILLE*   CLOUDY    82  77  83 SW5       29.91S
SOUTH HILL*    CLOUDY    82  77  84 S7        29.97S
LAWRENCEVILLE* PTSUNNY   83  77  81 CALM      29.91S
EMPORIA*       CLOUDY    81  77  89 S5        29.91F
$$

VAZ088>098-151700-
SOUTHEAST VIRGINIA

CITY           SKY/WX    TMP DP  RH WIND       PRES   REMARKS
NORFOLK        SUNNY     89  77  67 S6        29.88F HX 101
VIRGINIA BEACH PTSUNNY   87  74  64 S9        29.87F HX  95
NORFOLK NAVAL  PTSUNNY   88  77  69 SW5       29.89F HX 100
WEST POINT*    CLOUDY    82  75  79 CALM      29.90F
SALUDA*        CLOUDY    82  78  87 S5        29.89F
NEWPORT NEWS   CLOUDY    84  78  82 S7        29.89S HX  95
LANGLEY AFB    PTSUNNY   85  78  80 S8        29.88F HX  95
FORT EUSTIS    PTSUNNY   86  78  78 SE5       29.86F HX  98
WILLIAMSBURG*  MOSUNNY   84  79  84 CALM      29.90S HX  96
HR EXEC AP*    FAIR      88  77  70 SW6       29.86F HX 100
FRANKLIN*      MOSUNNY   84  76  78 S6        29.89F
US460-WAKEFLD  CLOUDY    83  79  88 VRB5      29.89F
$$

VAZ020-022-025-037-045-151700-
WEST CENTRAL AND SOUTHWEST VIRGINIA

CITY           SKY/WX    TMP DP  RH WIND       PRES   REMARKS
STAUNTON*      CLOUDY    73  70  92 CALM      29.96F
WAYNESBORO*    CLOUDY    74  73  95 CALM      29.96F
HOT SPRINGS VA CLOUDY    55  54  94 CALM      30.07S FOG
LYNCHBURG      CLOUDY    76  71  85 CALM      29.94F
DANVILLE       MOSUNNY   80  75  84 CALM      29.93S
SOUTH BOSTON*  PTSUNNY   82  75  78 W3        29.92S
MARTINSVILLE   PTSUNNY   81  72  74 CALM      29.97S
ROANOKE        MOSUNNY   80  72  76 CALM      29.97S
BLACKSBURG     PTSUNNY   76  69  78 W7        30.02F
DUBLIN*        CLOUDY    78  67  68 W5        30.01S
MARION*        LGT RAIN  71  67  86 SW5       30.06R
HILLSVILLE*    LGT RAIN  72  68  87 CALM      30.03S
RICHLANDS*     RAIN      70  65  86 SW3       30.05R
WISE*          LGT RAIN  72  72 100 W3        30.06R
ABINGDON*      CLOUDY    75  74  96 NW6       30.02R
$$

MDZ021>025-VAZ099-100-151700-
SOUTHERN MARYLAND AND THE DELMARVA PENINSULA

CITY           SKY/WX    TMP DP  RH WIND       PRES   REMARKS
PATUXENT RIVER CLOUDY    81  76  84 CALM      29.89S
BAY BRIDGE APT LGT RAIN  77  75  94 SE5       29.90S FOG
LEONARDTOWN    CLOUDY    79  72  78 CALM      29.91S
DOVER          LGT RAIN  75  75 100 CALM      29.89F
GEORGETOWN     CLOUDY    80  74  81 CALM      29.91F
EASTON         LGT RAIN  77  75  94 SE3       29.94F
CAMBRIDGE      PTSUNNY   79  77  94 E3        29.89F
SALISBURY      MOSUNNY   82  76  81 CALM      29.90S HAZE
OCEAN CITY     CLOUDY    79  76  90 SE5       29.91S
WALLOPS ISLAND CLOUDY    81  77  88 S6        29.90F
ACCOMACK*      CLOUDY    83  78  85 S3        29.89F
$$

NCZ012>017-030>032-151700-
NORTH CENTRAL AND EASTERN NORTH CAROLINA

CITY           SKY/WX    TMP DP  RH WIND       PRES   REMARKS
ROANOKE RAPIDS CLOUDY    81  79  94 S3        29.90F
RALEIGH        PTSUNNY   86  77  74 CALM      29.91F HX  97
ELIZABETH CITY MOSUNNY   87  78  74 S6        29.89F HX 100
AHOSKIE*         N/A     82  76  84 S7        29.90F
EDENTON*       SUNNY     87  78  74 W6        29.90F HX 100
CURRITUCK*     PTSUNNY   87  52  29 SW5       29.90F
KILL DEVIL HLS MOSUNNY   85  76  73 CALM      29.89F
MANTEO         CLOUDY    85  77  77 SW8       29.90F
CAPE HATTERAS  PTSUNNY   89  78  70 SE8       29.90F HX 103
TARBORO*       NOT AVBL
GOLDSBORO      PTSUNNY   86  82  89 SE3       29.90S HX 105
WASHINGTON     MOSUNNY   86  75  68 CALM      29.90F HX  95
GREENVILLE     MOSUNNY   86  77  74 CALM      29.92F HX  97
NEW BERN       MOSUNNY   90  77  65 CALM      29.90F HX 103
WILMINGTON     MOSUNNY   91  76  61 CALM      29.89F HX 103
$$

VAZ048-151700-
ELSEWHERE

CITY           SKY/WX    TMP DP  RH WIND       PRES   REMARKS
HARRISBURG PA  CLOUDY    72  68  87 CALM      29.92R FOG
BALTIMORE      LGT RAIN  75  75 100 CALM      29.89F FOG
ANNAPOLIS      LGT RAIN  78  78 100 SE6       29.90S FOG
ANDREWS AFB    RAIN      76  74  94 CALM      29.90S FOG
PHILADELPHIA   CLOUDY    76  72  87 E5        29.92R
HENDERSON NC   PTSUNNY   82  71  68 CALM      29.91F
GREENSBORO     PTSUNNY   82  75  79 VRB3      29.93F
ROCKY MOUNT    PTSUNNY   85  79  82 S6        29.91S HX  98
$$

VAZ100-151700-
MARINE

STATION/POSITION TIME  TEMP    WIND        PRES    WAVE   SWELL
                       AIR SEA DIR/SP/G            HT/PER HT/PER
                 (UTC) (F)     (DEG/KT/KT) (MB)    (FT/S) (FT/S)
BRANDYWINE LGT   1542   76     130/  2/  2 1013.3F
CAPE MAY NJ      1542   77 77  270/  2/  3 1012.3F
LEWES DE         1536   77 76  130/  5/  6 1012.4F
15NM E FENWICK I 1450   76 76  180/  2/  4 1013.2    3/10   3/10
OCEAN-CITY-INLET 1536   78 78  140/  3/  5 1013.1S
WACHAPREAGUE VA  1536   81 81  170/  6/  8 1012.4F
THOMAS POINT MD  1600   76 79  130/  6/  7   N/A
GOOSES REEF MD   1600   78 78  160/  2/  4 1013.2    0
COVE POINT MD    1536   78     100/  1/  2 1013.0S
SOLOMONS ISLAND  1536   82 80     CALM       N/A
BISHOPS HEAD MD  1536   79 80  230/  3/  5 1012.6F
PINEY POINT MD   1548          140/  2/  2   N/A
POTOMAC MD       1600   80 81   CALM  /  2 1011.4    0
CAMBRIDGE MD     1536   78 80              1013.2F
LEWISETTA VA     1536   80 81   80/  3/  3 1012.0F
RAPPAHANNOCK LGT 1548          180/  4/  5 1013.0F
STINGRAY PT      1600   81 81  160/  4/  6 1012.5    0
YORK RVR RNG VA  1536   80     140/  7/  8 1012.5F
YORKTOWN VA      1536   81 80  350/  4/  5 1011.8F
JAMESTOWN VA     1600      82     CALM       N/A     0
DOMINION TERM VA 1536   81     210/  2/  2 1012.3F
KIPTOPEKE VA     1536      79  170/  5/  5   N/A
CHES BAY BRIDGE  1536   83 78  140/  2/  3 1011.9F
CAPE HENRY VA    1536   80     110/  7/  9   N/A
WILLOUBY STN VA  1536   80     280/  5/  5 1012.1F
S CRANEY ISL VA  1536   84     150/  1/  4 1012.0F
CAPE HENRY BUOY  1600      78                N/A     3/12   2/12
1ST LANDING BUOY 1600   80 80              1011.8    2/ 5
64NM E OF VA BCH 1550   79 78  160/  4/  6 1013.3F   7/12   7/12
DUCK PIER NC     1536   82 77  120/  7/  7 1012.1F
44100 DUCK FRF   1535      79                N/A     5/12   3/12
44056 DUCK FRF   1600      80                N/A     4/11   2/11
OREGON INLET NC  1536   83 82   80/  6/  9 1012.6F
HATTERAS NC      1536   84 82  360/  4/  5 1012.8F
DIAMOND SHLS NC  1550   81 83   20/  8/ 10 1012.5F   7/12   7/12
CAPE LOOKOUT NC  1600   82     150/  6/  7 1012.2F
$$




USA.gov is the U.S. government's official web portal to all federal, state and local government web resources and services.